Location: Tr�vern
(48.0333°N, 4.6000°W)
Time: 19:04:37
(UTC+00:00)

Cosmos 1153 Rocket - Pass Details

Date: 14 July 2020
Orbit: 953 x 1007 km, 82.9° (Epoch: 11 August)

Event Time Altitude Azimuth Distance (km) Brightness Sun altitude
Exits shadow 01:17:13 33° 184° (S) 1,567 5.0 -19.3°
Maximum altitude 01:20:13 87° 100° (E) 971 4.4 -19.2°
Drops below altitude 10° 01:26:25 10° 10° (N) 2,698 8.1 -19.0°
Sets 01:28:54 0° 10° (N) 3,645 9.2 -18.8°
